Location: Diguira
(13.1838°N, 4.9109°W)
Time: 16:52:50
(UTC+00:00)

ATLAS 3B CENTAUR R/B - Pass Details

Date: 18 September 2020
Orbit: 220 x 4179 km, 28.1° (Epoch: 25 October)

Event Time Altitude Azimuth Distance (km) Brightness Sun altitude
Rises 18:53:38 0° 295° (WNW) 4,048 7.2 -9.4°
Reaches altitude 10° 18:55:44 10° 295° (WNW) 3,432 6.6 -9.9°
Maximum altitude 19:05:20 86° 208° (SSW) 2,311 4.4 -12.3°
Enters shadow 19:25:32 13° 121° (ESE) 6,667 6.2 -17.2°
